Location: lozzo di cadore
(46.4899°N, 12.4508°E)
Time: 22:04:49
(UTC+01:00)

ISS - Visible Passes

Search period start: 15 January 2021 00:00
Search period end: 25 January 2021 00:00
Orbit: 418 x 419 km, 51.6° (Epoch: 16 January)

Date Brightness Start Highest point End Pass type
(mag) Time Alt. Az. Time Alt. Az. Time Alt. Az.
17 Jan -0.7 19:28:14 10° SSW 19:28:21 11° SSW 19:28:21 11° SSW visible
18 Jan -1.9 18:41:05 10° S 18:42:57 19° SSE 18:42:57 19° SSE visible
19 Jan -1.5 17:54:26 10° SSE 17:56:05 13° SE 17:57:27 11° ESE visible
19 Jan -1.5 19:29:02 10° SW 19:30:25 23° SW 19:30:25 23° SW visible
20 Jan -3.5 18:41:24 10° SW 18:44:39 49° SE 18:44:49 48° SE visible
21 Jan -2.6 17:53:56 10° SSW 17:56:57 31° SE 17:59:10 15° E visible
21 Jan -1.7 19:30:19 10° W 19:32:07 28° W 19:32:07 28° W visible
22 Jan -3.8 18:42:25 10° WSW 18:45:47 76° NNW 18:46:24 55° NE visible
23 Jan -3.7 17:54:38 10° SW 17:57:58 75° SSE 18:00:37 15° ENE visible
23 Jan -1.6 19:31:48 10° W 19:33:34 25° WNW 19:33:34 25° WNW visible
24 Jan -3.0 18:43:48 10° W 18:47:02 43° NNW 18:47:44 37° NNE visible
